Home   Weather   Des Moines   Past weeks

Flag for USA Past Weather in Des Moines, Iowa, USA — Yesterday and Last 2 Weeks

Now
70 °F

Overcast.


Feels Like: 77 °F
Forecast: 43 / 59 °F
Wind: 5 mph from Southeast

Location: Des Moines International Airport

Current Time: Apr 25, 2017 at 7:38:52 pm

Latest Report: Apr 25, 2017 at 6:54 pm


Visibility: 10 mi

Pressure: 29.41 "Hg

Humidity: 51%

Dew Point: 51 °F

Location of Des MoinesLocation

Past Weather in Des Moines — Graph

°F

Des Moines Temperature Yesterday

Maximum temperature yesterday: 76 °F (at 2:54 pm)
Minimum temperature yesterday: 49 °F (at 4:54 am)
Average temperature yesterday: 63 °F

High & Low Weather Summary for the Past Weeks

 TemperatureHumidityPressure
High80 °F (Apr 19, 6:08 pm)93% (Apr 16, 12:54 am)30.32 "Hg (Apr 16, 12:54 am)
Low39 °F (Apr 11, 7:54 am)17% (Apr 24, 2:54 pm)29.40 "Hg (Apr 25, 4:54 pm)
Average60 °F58%30.01 "Hg
* Reported Apr 10 5:54 pm — Apr 25 5:54 pm, Des Moines, Weather by CustomWeather, © 2017

Note: Actual official high and low records may vary slightly from our data, if they occured in-between our weather recording intervals... More about our weather records

Advertising

Des Moines Weather History for the Previous 24 Hours

Scroll right to see more
 ConditionsComfort  
Time TempWeatherWind HumidityBarometerVisibility
5:54 pm
Tue, Apr 25
71 °FOvercast.6 mph47%29.41 "Hg10 mi
4:54 pm72 °FOvercast.8 mph43%29.40 "Hg10 mi
3:54 pm72 °FOvercast.12 mph43%29.40 "Hg10 mi
2:54 pm73 °FOvercast.14 mph41%29.40 "Hg10 mi
1:54 pm74 °FOvercast.16 mph40%29.42 "Hg10 mi
12:54 pm71 °FPartly sunny.9 mph44%29.45 "Hg10 mi
11:54 am67 °FPartly sunny.8 mph49%29.48 "Hg10 mi
10:54 am60 °FMostly cloudy.3 mph60%29.52 "Hg10 mi
9:54 am59 °FMostly cloudy.7 mph56%29.46 "Hg10 mi
8:54 am59 °FCloudy.8 mph54%29.48 "Hg10 mi
7:54 am58 °FMore clouds than sun.9 mph56%29.52 "Hg10 mi
6:54 am57 °FPartly sunny.6 mph55%29.52 "Hg10 mi
5:54 am57 °FPassing clouds.8 mph51%29.51 "Hg10 mi
4:54 am57 °FPassing clouds.8 mph51%29.51 "Hg10 mi
3:54 am58 °FPassing clouds.7 mph47%29.51 "Hg10 mi
2:54 am60 °FPassing clouds.8 mph42%29.52 "Hg10 mi
1:54 am62 °FPassing clouds.8 mph39%29.54 "Hg10 mi
12:54 am63 °FOvercast.8 mph38%29.55 "Hg10 mi
11:54 pm
Mon, Apr 24
64 °FOvercast.8 mph34%29.56 "Hg10 mi
10:54 pm64 °FOvercast.8 mph34%29.57 "Hg10 mi
9:54 pm66 °FPassing clouds.10 mph28%29.58 "Hg10 mi
8:54 pm65 °FPassing clouds.9 mph29%29.59 "Hg10 mi
7:54 pm68 °FPassing clouds.8 mph25%29.58 "Hg10 mi
Weather by CustomWeather, © 2017

See weather overviewHow to use our weather pages